Location: Narrabri
(30.3170°S, 149.7830°E)
Time: 05:28:09
(UTC+10:00)

Hubble Space Telescope - Visible Passes

Search period start: 20 July 2018 00:00
Search period end: 30 July 2018 00:00
Orbit: 537 x 541 km, 28.5° (Epoch: 18 July)

Date Brightness Start Highest point End Pass type
(mag) Time Alt. Az. Time Alt. Az. Time Alt. Az.
20 Jul 3.2 18:32:38 10° WNW 18:35:36 19° NNW 18:38:33 10° NNE visible
21 Jul 3.5 18:22:45 10° WNW 18:25:09 15° NNW 18:27:33 10° N visible
22 Jul 3.8 18:13:16 10° NW 18:14:43 11° NNW 18:16:08 10° N visible
